Flag for U.S.A. Weather past 2 weeks in Sevierville, Tennessee, U.S.A.

71 °F

Passing clouds.

Feels Like: 75 °F
Forecast: 55 / 73 °F
Wind: 9 mph from Southwest

Location: McGhee Tyson Airport

Current Time: Oct 13, 2015 at 1:26:16 PM

Latest Report: Oct 13, 2015 at 12:53 PM

Visibility: 10 mi

Pressure: 29.78 "Hg

Humidity: 63%

Dew point: 58 °F

Location of SeviervilleLocation

Historic Weather in Sevierville — Graph


Sevierville temperature yesterday

Maximum temperature yesterday: 73 °F (at 3:53 PM)
Minimum temperature yesterday: 52 °F (at 5:00 AM)
Average temperature yesterday: 61 °F

Past Weeks' High & Low Weather Summary

High83 °F (Sep 28, 3:53 PM)100% (Sep 30, 12:53 AM)30.14 "Hg (Sep 30, 12:53 AM)
Low52 °F (Oct 12, 5:00 AM)42% (Oct 7, 4:53 PM)29.72 "Hg (Oct 13, 4:53 AM)
Average66 °F81%29.92 "Hg
* Reported Sep 28 11:53 AM — Oct 13 11:53 AM, Sevierville, Weather by CustomWeather, © 2015

Note: Actual official high and low records may vary slightly from our data, if they occured in-between our weather recording intervals... More about our weather records


Sevierville weather history for previous 24 hours

Time TempWeatherWind HumidityBarometerVisibility
11:53 AM
Tue, Oct 13
69 °FScattered clouds.13 mph70%29.78 "Hg10 mi
10:53 AM66 °FPassing clouds.14 mph78%29.78 "Hg10 mi
9:53 AM64 °FPartly sunny.13 mph84%29.79 "Hg10 mi
8:53 AM60 °FPartly sunny.7 mph93%29.78 "Hg10 mi
7:53 AM59 °FPassing clouds.8 mph93%29.75 "Hg10 mi
7:00 AM60 °FPassing clouds.8 mph90%29.76 "Hg10 mi
5:53 AM59 °FPassing clouds.7 mph93%29.72 "Hg10 mi
4:53 AM60 °FPassing clouds.9 mph90%29.72 "Hg10 mi
3:53 AM60 °FPassing clouds.8 mph90%29.72 "Hg10 mi
2:53 AM59 °FMostly cloudy.9 mph93%29.74 "Hg10 mi
1:53 AM59 °FLight rain. Mostly cloudy.6 mph96%29.77 "Hg8 mi
12:55 AM60 °FHeavy rain. Fog.8 mph86%29.80 "Hg2 mi
12:00 AM65 °FThunderstorms. Overcast.17 mph66%29.74 "Hg10 mi
10:53 PM
Mon, Oct 12
63 °FPassing clouds.8 mph70%29.73 "Hg10 mi
9:53 PM63 °FPassing clouds.9 mph70%29.74 "Hg10 mi
8:53 PM64 °FPassing clouds.9 mph68%29.75 "Hg10 mi
7:53 PM66 °FPassing clouds.9 mph63%29.74 "Hg10 mi
6:53 PM68 °FPassing clouds.9 mph63%29.75 "Hg10 mi
5:53 PM72 °FPassing clouds.12 mph53%29.77 "Hg10 mi
4:53 PM73 °FPassing clouds.13 mph51%29.78 "Hg10 mi
3:53 PM73 °FPassing clouds.12 mph50%29.79 "Hg10 mi
2:53 PM72 °FPassing clouds.14 mph52%29.82 "Hg10 mi
Weather by CustomWeather, © 2015

See weather overviewHow to use our weather pages